Time,TemperatureF,DewpointF,PressureIn,WindDirection,WindDirectionDegrees,WindSpeedMPH,WindSpeedGustMPH,Humidity,HourlyPrecipIn,Conditions,Clouds,dailyrainin,SoftwareType,DateUTC
2013-01-20 00:29:00,21.3,12.7,30.34,NW,304,0.0,0.0,69,0.00,,---,0.00,VWS V14.01,2013-01-20 06:29:00,
2013-01-20 00:59:00,20.0,10.1,30.33,NE,42,0.0,0.0,65,0.00,,---,0.00,VWS V14.01,2013-01-20 06:59:00,
2013-01-20 01:29:00,19.3,10.5,30.34,NNE,13,0.0,0.0,68,0.00,,---,0.00,VWS V14.01,2013-01-20 07:29:00,
2013-01-20 01:59:00,18.5,10.4,30.35,WNW,298,0.0,0.0,70,0.00,,---,0.00,VWS V14.01,2013-01-20 07:59:00,
2013-01-20 02:29:00,18.1,10.0,30.34,NNE,19,0.0,0.0,70,0.00,,---,0.00,VWS V14.01,2013-01-20 08:29:00,
2013-01-20 02:59:00,17.8,9.4,30.35,NNE,26,0.0,0.0,69,0.00,,---,0.00,VWS V14.01,2013-01-20 08:59:00,
2013-01-20 03:29:00,17.3,9.2,30.34,North,360,0.0,0.0,70,0.00,,---,0.00,VWS V14.01,2013-01-20 09:29:00,
2013-01-20 03:59:00,17.1,9.3,30.34,North,360,0.0,0.0,71,0.00,,---,0.00,VWS V14.01,2013-01-20 09:59:00,
2013-01-20 04:29:00,16.4,7.7,30.34,NNW,333,0.0,0.0,68,0.00,,---,0.00,VWS V14.01,2013-01-20 10:29:00,
2013-01-20 04:59:00,16.0,7.6,30.34,NNW,333,0.0,0.0,69,0.00,,---,0.00,VWS V14.01,2013-01-20 10:59:00,
2013-01-20 05:29:00,15.7,8.0,30.34,NNW,333,0.0,0.0,71,0.00,,---,0.00,VWS V14.01,2013-01-20 11:29:00,
2013-01-20 05:59:00,15.3,7.9,30.35,NNW,333,0.0,0.0,72,0.00,,---,0.00,VWS V14.01,2013-01-20 11:59:00,
2013-01-20 06:29:00,14.8,7.7,30.34,NNW,333,0.0,0.0,73,0.00,,---,0.00,VWS V14.01,2013-01-20 12:29:00,
2013-01-20 06:59:00,14.5,7.7,30.35,NNW,333,0.0,0.0,74,0.00,,---,0.00,VWS V14.01,2013-01-20 12:59:00,
2013-01-20 07:29:00,14.6,8.1,30.36,NNW,333,0.0,0.0,75,0.00,,---,0.00,VWS V14.01,2013-01-20 13:29:00,
2013-01-20 07:59:00,15.1,8.3,30.37,NNW,333,0.0,0.0,74,0.00,,---,0.00,VWS V14.01,2013-01-20 13:59:00,
2013-01-20 08:29:00,15.6,8.8,30.36,NNW,333,0.0,0.0,74,0.00,,---,0.00,VWS V14.01,2013-01-20 14:29:00,
2013-01-20 08:59:00,16.6,8.9,30.38,NNE,13,0.0,0.0,71,0.00,,---,0.00,VWS V14.01,2013-01-20 14:59:00,
2013-01-20 09:29:00,17.7,8.9,30.38,North,355,0.0,0.0,68,0.00,,---,0.00,VWS V14.01,2013-01-20 15:29:00,
2013-01-20 09:59:00,18.5,8.7,30.38,NNE,30,0.0,0.0,65,0.00,,---,0.00,VWS V14.01,2013-01-20 15:59:00,
2013-01-20 10:29:00,18.9,8.8,30.41,NNE,17,0.0,0.0,64,0.00,,---,0.00,VWS V14.01,2013-01-20 16:29:00,
2013-01-20 10:59:00,19.2,8.0,30.42,NW,313,0.0,0.0,61,0.00,,---,0.00,VWS V14.01,2013-01-20 16:59:00,
2013-01-20 11:29:00,20.2,6.6,30.44,NE,37,0.0,0.0,55,0.00,,---,0.00,VWS V14.01,2013-01-20 17:29:00,
2013-01-20 11:59:00,20.2,6.6,30.44,NNE,24,0.0,0.0,55,0.00,,---,0.00,VWS V14.01,2013-01-20 17:59:00,
2013-01-20 12:59:00,20.2,5.4,30.41,WNW,292,0.0,0.0,52,0.00,,---,0.00,VWS V14.01,2013-01-20 18:59:00,
2013-01-20 13:29:00,20.5,6.1,30.41,WNW,294,0.0,0.0,53,0.00,,---,0.00,VWS V14.01,2013-01-20 19:29:00,
2013-01-20 13:59:00,20.4,6.8,30.41,NNE,19,0.0,0.0,55,0.00,,---,0.00,VWS V14.01,2013-01-20 19:59:00,
2013-01-20 14:29:00,20.4,7.6,30.41,NNE,19,0.0,0.0,57,0.00,,---,0.00,VWS V14.01,2013-01-20 20:29:00,
2013-01-20 14:59:00,20.1,7.7,30.42,NNW,340,0.0,0.0,58,0.00,,---,0.00,VWS V14.01,2013-01-20 20:59:00,
2013-01-20 15:29:00,20.6,8.6,30.42,NW,306,0.0,0.0,59,0.00,,---,0.00,VWS V14.01,2013-01-20 21:29:00,
2013-01-20 15:59:00,20.6,9.7,30.42,NNE,15,0.0,0.0,62,0.00,,---,0.00,VWS V14.01,2013-01-20 21:59:00,
2013-01-20 16:29:00,20.2,11.4,30.42,WNW,284,0.0,0.0,68,0.00,,---,0.00,VWS V14.01,2013-01-20 22:29:00,
2013-01-20 16:59:00,19.4,11.6,30.43,NW,320,0.0,0.0,71,0.00,,---,0.00,VWS V14.01,2013-01-20 22:59:00,
2013-01-20 17:29:00,18.4,10.9,30.43,NW,312,0.0,0.0,72,0.00,,---,0.00,VWS V14.01,2013-01-20 23:29:00,
2013-01-20 17:59:00,17.4,10.9,30.45,NW,306,0.0,0.0,75,0.00,,---,0.00,VWS V14.01,2013-01-20 23:59:00,
2013-01-20 18:29:00,17.0,11.1,30.45,NW,306,0.0,0.0,77,0.00,,---,0.00,VWS V14.01,2013-01-21 00:29:00,
2013-01-20 18:59:00,16.6,10.9,30.46,NW,306,0.0,0.0,78,0.00,,---,0.00,VWS V14.01,2013-01-21 00:59:00,
2013-01-20 19:29:00,16.0,10.1,30.45,NW,306,0.0,0.0,77,0.00,,---,0.00,VWS V14.01,2013-01-21 01:29:00,
2013-01-20 19:59:00,15.8,10.2,30.45,NW,306,0.0,0.0,78,0.00,,---,0.00,VWS V14.01,2013-01-21 01:59:00,
2013-01-20 20:29:00,15.5,9.9,30.45,NW,306,0.0,0.0,78,0.00,,---,0.00,VWS V14.01,2013-01-21 02:29:00,
2013-01-20 20:59:00,15.0,9.4,30.47,NW,306,0.0,0.0,78,0.00,,---,0.00,VWS V14.01,2013-01-21 02:59:00,
2013-01-20 21:29:00,14.8,9.5,30.47,North,5,0.0,0.0,79,0.00,,---,0.00,VWS V14.01,2013-01-21 03:29:00,
2013-01-20 21:59:00,14.7,9.1,30.46,NNW,347,0.0,0.0,78,0.00,,---,0.00,VWS V14.01,2013-01-21 03:59:00,
2013-01-20 22:29:00,14.1,8.5,30.45,NNW,347,0.0,0.0,78,0.00,,---,0.00,VWS V14.01,2013-01-21 04:29:00,
2013-01-20 22:59:00,13.7,8.4,30.46,NNW,347,0.0,0.0,79,0.00,,---,0.00,VWS V14.01,2013-01-21 04:59:00,
2013-01-20 23:29:00,12.9,8.4,30.46,NNW,347,0.0,0.0,82,0.00,,---,0.00,VWS V14.01,2013-01-21 05:29:00,
2013-01-20 23:59:00,14.0,9.5,30.46,NNW,335,0.0,0.0,82,0.00,,---,0.00,VWS V14.01,2013-01-21 05:59:00,